Flag for U.S.A. Weather past 2 weeks in West Palm Beach, Florida, U.S.A.

Now
92 °F

Partly sunny.


Feels Like: 101 °F
Forecast: 77 / 89 °F
Wind: 3 mph from North

Location: Palm Beach International Airport

Current Time: Sep 4, 2015 at 1:23:44 PM

Latest Report: Sep 4, 2015 at 12:53 PM


Visibility: 10 mi

Pressure: 29.98 "Hg

Humidity: 54%

Dew point: 73 °F

Location of West Palm BeachLocation

Historic Weather in West Palm Beach — Graph

°F

West Palm Beach temperature yesterday

Maximum temperature yesterday: 91 °F (at 12:53 PM)
Minimum temperature yesterday: 77 °F (at 6:53 AM)
Average temperature yesterday: 83 °F

Past Weeks' High & Low Weather Summary

 TemperatureHumidityPressure
High92 °F (Aug 22, 12:53 PM)100% (Aug 27, 2:53 AM)30.11 "Hg (Aug 27, 2:53 AM)
Low73 °F (Aug 27, 4:53 PM)51% (Aug 22, 12:53 PM)29.88 "Hg (Aug 24, 7:53 PM)
Average83 °F78%29.99 "Hg
* Reported Aug 20 11:53 AM — Sep 4 11:53 AM, West Palm Beach, Weather by CustomWeather, © 2015

Note: Actual official high and low records may vary slightly from our data, if they occured in-between our weather recording intervals... More about our weather records

Advertising

West Palm Beach weather history for previous 24 hours

 ConditionsComfort  
Time TempWeatherWind HumidityBarometerVisibility
11:53 AM
Fri, Sep 4
90 °FScattered clouds.9 mph61%30.00 "Hg10 mi
10:53 AM87 °FScattered clouds.5 mph67%29.99 "Hg10 mi
9:53 AM84 °FScattered clouds.7 mph77%29.99 "Hg10 mi
8:53 AM81 °FScattered clouds.6 mph82%29.98 "Hg10 mi
7:53 AM78 °FPassing clouds.6 mph87%29.97 "Hg10 mi
6:53 AM76 °FPassing clouds.3 mph94%29.96 "Hg10 mi
5:53 AM77 °FPassing clouds.3 mph94%29.94 "Hg10 mi
4:53 AM77 °FPassing clouds.3 mph90%29.93 "Hg10 mi
3:53 AM75 °FPassing clouds.3 mph94%29.92 "Hg10 mi
2:53 AM77 °FPassing clouds.3 mph88%29.93 "Hg10 mi
1:53 AM77 °FPassing clouds.No wind88%29.95 "Hg10 mi
12:53 AM77 °FPassing clouds.5 mph85%29.95 "Hg10 mi
11:53 PM
Thu, Sep 3
78 °FPassing clouds.3 mph79%29.96 "Hg10 mi
10:53 PM78 °FPassing clouds.5 mph76%29.97 "Hg10 mi
9:53 PM78 °FPassing clouds.6 mph79%29.96 "Hg10 mi
8:53 PM80 °FPassing clouds.8 mph81%29.94 "Hg10 mi
7:53 PM85 °FBroken clouds.8 mph72%29.93 "Hg10 mi
6:53 PM84 °FBroken clouds.7 mph70%29.92 "Hg10 mi
5:53 PM84 °FThunderstorms. Broken clouds.7 mph72%29.93 "Hg10 mi
5:01 PM89 °FThunderstorms. Broken clouds.14 mph61%29.91 "Hg10 mi
3:53 PM90 °FBroken clouds.13 mph59%29.93 "Hg10 mi
2:53 PM91 °FBroken clouds.12 mph60%29.94 "Hg10 mi
1:53 PM89 °FPartly sunny.8 mph59%29.96 "Hg10 mi
Weather by CustomWeather, © 2015

See weather overviewHow to use our weather pages